• In Netherlands
  • List of Countries
  • For 7 days
  • Water Temperature
  • Satellite Maps
  • Weather Map
  • Weather Widgets
  • user-avatar
    Login

    Hourly Weather Tirana

    Today, 24 August, Thursday

    Time Temperature Precipitation Wind Pressure Humidity
    00:00 +20°C° 0 mm 2 mps 756 mmHg 48%
    01:00 +20°C° 0 mm 2 mps 756 mmHg 46%
    02:00 +19°C° 0 mm 2 mps 756 mmHg 47%
    03:00 +19°C° 0 mm 2 mps 756 mmHg 47%
    04:00 +19°C° 0 mm 2 mps 756 mmHg 47%
    05:00 +20°C° 0 mm 2 mps 756 mmHg 45%
    06:00 +23°C° 0 mm 2 mps 756 mmHg 43%
    07:00 +24°C° 0 mm 2 mps 756 mmHg 40%
    08:00 +27°C° 0 mm 2 mps 756 mmHg 35%
    09:00 +29°C° 0 mm 2 mps 757 mmHg 30%
    10:00 +32°C° 0 mm 2 mps 757 mmHg 25%
    11:00 +34°C° 0 mm 3 mps 757 mmHg 23%
    12:00 +34°C° 0 mm 4 mps 756 mmHg 21%
    13:00 +35°C° 0 mm 4 mps 756 mmHg 19%
    14:00 +35°C° 0 mm 5 mps 756 mmHg 20%
    15:00 +34°C° 0 mm 5 mps 756 mmHg 21%
    16:00 +34°C° 0 mm 6 mps 756 mmHg 22%
    17:00 +30°C° 0 mm 5 mps 756 mmHg 29%
    18:00 +27°C° 0 mm 4 mps 756 mmHg 36%
    19:00 +24°C° 0 mm 3 mps 756 mmHg 44%
    20:00 +24°C° 0 mm 3 mps 757 mmHg 41%
    21:00 +24°C° 0 mm 3 mps 757 mmHg 39%
    22:00 +23°C° 0 mm 2 mps 757 mmHg 37%
    23:00 +23°C° 0 mm 2 mps 757 mmHg 35%

    Tomorrow, 25 August, Friday

    Time Temperature Precipitation Wind Pressure Humidity
    00:00 +23°C° 0 mm 2 mps 757 mmHg 33%
    01:00 +23°C° 0 mm 2 mps 757 mmHg 31%
    02:00 +21°C° 0 mm 2 mps 757 mmHg 31%
    03:00 +21°C° 0 mm 2 mps 757 mmHg 31%
    04:00 +21°C° 0 mm 2 mps 757 mmHg 30%
    05:00 +23°C° 0 mm 2 mps 757 mmHg 30%
    06:00 +25°C° 0 mm 2 mps 757 mmHg 29%
    07:00 +27°C° 0 mm 2 mps 757 mmHg 29%
    08:00 +29°C° 0 mm 2 mps 757 mmHg 25%
    09:00 +32°C° 0 mm 2 mps 757 mmHg 21%
    10:00 +36°C° 0 mm 2 mps 757 mmHg 18%
    11:00 +37°C° 0 mm 2 mps 757 mmHg 17%
    12:00 +37°C° 0 mm 3 mps 756 mmHg 16%
    13:00 +38°C° 0 mm 4 mps 756 mmHg 15%
    14:00 +38°C° 0 mm 4 mps 755 mmHg 17%
    15:00 +37°C° 0 mm 4 mps 755 mmHg 18%
    16:00 +37°C° 0 mm 5 mps 755 mmHg 19%
    17:00 +33°C° 0 mm 4 mps 755 mmHg 25%
    18:00 +29°C° 0 mm 3 mps 755 mmHg 32%
    19:00 +26°C° 0 mm 3 mps 755 mmHg 39%
    20:00 +26°C° 0 mm 2 mps 756 mmHg 36%
    21:00 +25°C° 0 mm 2 mps 756 mmHg 34%
    22:00 +25°C° 0 mm 2 mps 756 mmHg 31%
    23:00 +25°C° 0 mm 2 mps 756 mmHg 29%

    Day after tomorrow, 26 August, Saturday

    Time Temperature Precipitation Wind Pressure Humidity
    00:00 +24°C° 0 mm 2 mps 756 mmHg 27%
    01:00 +24°C° 0 mm 2 mps 756 mmHg 25%
    02:00 +24°C° 0 mm 2 mps 755 mmHg 25%
    03:00 +23°C° 0 mm 2 mps 755 mmHg 25%
    04:00 +23°C° 0 mm 1 mps 755 mmHg 25%
    05:00 +25°C° 0 mm 2 mps 755 mmHg 26%
    06:00 +26°C° 0 mm 2 mps 755 mmHg 26%
    07:00 +28°C° 0 mm 2 mps 755 mmHg 26%
    08:00 +31°C° 0 mm 1 mps 755 mmHg 23%
    09:00 +33°C° 0 mm 1 mps 755 mmHg 19%
    10:00 +36°C° 0 mm 1 mps 755 mmHg 16%
    11:00 +38°C° 0 mm 2 mps 755 mmHg 15%
    12:00 +38°C° 0 mm 3 mps 755 mmHg 14%
    13:00 +40°C° 0 mm 4 mps 754 mmHg 14%
    14:00 +38°C° 0 mm 4 mps 754 mmHg 15%
    15:00 +38°C° 0 mm 4 mps 754 mmHg 16%
    16:00 +37°C° 0 mm 4 mps 753 mmHg 17%
    17:00 +34°C° 0 mm 4 mps 754 mmHg 23%
    18:00 +30°C° 0 mm 3 mps 754 mmHg 30%
    19:00 +27°C° 0 mm 2 mps 754 mmHg 36%
    20:00 +26°C° 0 mm 2 mps 754 mmHg 35%
    21:00 +26°C° 0 mm 2 mps 754 mmHg 33%
    22:00 +26°C° 0 mm 1 mps 754 mmHg 32%
    23:00 +26°C° 0 mm 1 mps 754 mmHg 31%

    27 August, Sunday

    Time Temperature Precipitation Wind Pressure Humidity
    00:00 +25°C° 0 mm 1 mps 754 mmHg 30%
    01:00 +25°C° 0 mm 1 mps 754 mmHg 29%
    02:00 +25°C° 0 mm 1 mps 754 mmHg 30%
    03:00 +24°C° 0 mm 1 mps 754 mmHg 30%
    04:00 +24°C° 0 mm 1 mps 754 mmHg 31%
    05:00 +26°C° 0 mm 1 mps 754 mmHg 30%
    06:00 +27°C° 0 mm 2 mps 754 mmHg 29%
    07:00 +29°C° 0 mm 2 mps 754 mmHg 29%
    08:00 +32°C° 0 mm 1 mps 754 mmHg 25%
    09:00 +34°C° 0 mm 1 mps 754 mmHg 21%
    10:00 +37°C° 0 mm 1 mps 754 mmHg 17%
    11:00 +39°C° 0 mm 2 mps 753 mmHg 16%
    12:00 +39°C° 0 mm 3 mps 753 mmHg 16%
    13:00 +41°C° 0 mm 4 mps 753 mmHg 15%
    14:00 +40°C° 0 mm 4 mps 752 mmHg 16%
    15:00 +39°C° 0 mm 5 mps 752 mmHg 17%
    16:00 +39°C° 0 mm 5 mps 752 mmHg 18%
    17:00 +35°C° 0 mm 4 mps 752 mmHg 25%
    18:00 +30°C° 0 mm 3 mps 752 mmHg 31%
    19:00 +27°C° 0 mm 2 mps 752 mmHg 38%
    20:00 +27°C° 0 mm 2 mps 753 mmHg 36%
    21:00 +27°C° 0 mm 2 mps 753 mmHg 34%
    22:00 +27°C° 0 mm 1 mps 753 mmHg 33%
    23:00 +26°C° 0 mm 1 mps 753 mmHg 31%

    28 August, Monday

    Time Temperature Precipitation Wind Pressure Humidity
    00:00 +26°C° 0 mm 1 mps 753 mmHg 30%
    01:00 +26°C° 0 mm 1 mps 753 mmHg 29%
    02:00 +26°C° 0 mm 1 mps 753 mmHg 29%
    03:00 +25°C° 0 mm 2 mps 753 mmHg 29%
    04:00 +25°C° 0 mm 2 mps 753 mmHg 29%
    05:00 +27°C° 0 mm 2 mps 753 mmHg 28%
    06:00 +28°C° 0 mm 2 mps 753 mmHg 27%
    07:00 +30°C° 0 mm 1 mps 753 mmHg 26%
    08:00 +32°C° 0 mm 1 mps 753 mmHg 23%
    09:00 +35°C° 0 mm 1 mps 753 mmHg 20%
    10:00 +39°C° 0 mm 1 mps 752 mmHg 16%
    11:00 +39°C° 0 mm 2 mps 752 mmHg 16%
    12:00 +41°C° 0 mm 4 mps 752 mmHg 16%
    13:00 +41°C° 0 mm 5 mps 751 mmHg 16%
    14:00 +40°C° 0 mm 5 mps 751 mmHg 17%
    15:00 +40°C° 0 mm 5 mps 751 mmHg 19%
    16:00 +39°C° 0 mm 5 mps 751 mmHg 20%
    17:00 +35°C° 0 mm 4 mps 751 mmHg 27%
    18:00 +32°C° 0 mm 4 mps 751 mmHg 34%
    19:00 +28°C° 0 mm 3 mps 751 mmHg 41%
    20:00 +28°C° 0 mm 3 mps 751 mmHg 40%
    21:00 +27°C° 0 mm 2 mps 752 mmHg 38%
    22:00 +27°C° 0 mm 2 mps 752 mmHg 37%
    23:00 +27°C° 0 mm 2 mps 752 mmHg 34%

    29 August, Tuesday

    Time Temperature Precipitation Wind Pressure Humidity
    00:00 +27°C° 0 mm 2 mps 752 mmHg 32%
    01:00 +26°C° 0 mm 2 mps 752 mmHg 30%
    02:00 +26°C° 0 mm 2 mps 752 mmHg 30%
    03:00 +26°C° 0 mm 2 mps 752 mmHg 29%
    04:00 +26°C° 0 mm 2 mps 752 mmHg 29%
    05:00 +27°C° 0 mm 2 mps 752 mmHg 29%
    06:00 +29°C° 0 mm 2 mps 752 mmHg 28%
    07:00 +30°C° 0 mm 2 mps 753 mmHg 28%
    08:00 +34°C° 0 mm 2 mps 752 mmHg 24%
    09:00 +36°C° 0 mm 2 mps 752 mmHg 21%
    10:00 +39°C° 0 mm 2 mps 752 mmHg 18%
    11:00 +40°C° 0 mm 3 mps 752 mmHg 17%
    12:00 +42°C° 0 mm 3 mps 752 mmHg 16%
    13:00 +42°C° 0 mm 4 mps 752 mmHg 15%
    14:00 +42°C° 0 mm 4 mps 751 mmHg 16%
    15:00 +41°C° 0 mm 5 mps 751 mmHg 17%
    16:00 +41°C° 0 mm 6 mps 751 mmHg 19%
    17:00 +37°C° 0 mm 5 mps 751 mmHg 25%
    18:00 +34°C° 0 mm 5 mps 752 mmHg 31%
    19:00 +32°C° 0 mm 4 mps 752 mmHg 37%
    20:00 +30°C° 0 mm 4 mps 752 mmHg 38%
    21:00 +29°C° 0 mm 4 mps 752 mmHg 39%
    22:00 +28°C° 0 mm 3 mps 753 mmHg 41%
    23:00 +28°C° 0 mm 3 mps 753 mmHg 42%
    Show more